DC4AT Weather Reports


Display with metric or nautical units.
time (UTC)temp
F
wind
direction
speed
MPH
gust
MPH
rain 1hr
in
rain 24hr
in
rain mn
in
humidity
%
barometer
mb
20260831135724 67 270 5.0 9.0 0.07 0.12 0.12 79 1011.0
20260831134724 67 292 4.0 9.0 0.07 0.12 0.12 82 1011.0
20260831133724 66 236 2.0 7.0 0.07 0.12 0.12 84 1011.0
20260831132724 65 261 3.0 8.0 0.07 0.12 0.12 85 1011.3
20260831131724 66 315 8.0 12.0 0.07 0.12 0.12 78 1011.5
20260831130725 69 236 9.0 14.0 0.00 0.05 0.05 65 1011.2
20260831125725 70 281 10.0 19.0 0.00 0.05 0.05 63 1011.1
20260831124725 70 291 10.0 15.0 0.00 0.05 0.05 64 1011.0
20260831123725 70 277 9.0 16.0 0.00 0.05 0.05 63 1010.9
20260831122725 69 240 8.0 18.0 0.00 0.05 0.05 66 1011.1
20260831121725 69 277 9.0 13.0 0.00 0.05 0.05 67 1011.2
20260831120725 70 273 9.0 14.0 0.00 0.05 0.05 66 1011.2
20260831115725 70 286 10.0 16.0 0.00 0.05 0.05 64 1011.2
20260831114725 70 265 8.0 17.0 0.00 0.05 0.05 66 1011.1
20260831113725 69 333 8.0 15.0 0.05 0.05 0.05 70 1011.1
20260831112725 68 261 7.0 14.0 0.05 0.05 0.05 70 1011.3
20260831111725 69 242 6.0 10.0 0.05 0.05 0.05 74 1011.3
20260831110725 68 229 9.0 16.0 0.05 0.05 0.05 75 1011.2
20260831105725 67 272 4.0 17.0 0.05 0.05 0.05 81 1011.3
20260831104725 67 228 6.0 11.0 0.05 0.05 0.05 78 1011.5
20260831103725 68 267 6.0 12.0 0.00 0.00 0.00 72 1011.5
20260831102725 69 289 7.0 9.0 0.00 0.00 0.00 71 1011.5
20260831101725 68 327 6.0 8.0 0.00 0.00 0.00 73 1011.5
20260831100725 68 271 9.0 13.0 0.00 0.00 0.00 72 1011.6
20260831095725 68 226 9.0 16.0 0.00 0.00 0.00 71 1011.8
20260831094725 68 258 8.0 14.0 0.00 0.00 0.00 72 1011.8
20260831093725 68 244 9.0 13.0 0.00 0.00 0.00 72 1011.8
20260831092725 67 301 9.0 19.0 0.00 0.00 0.00 74 1011.8
20260831091725 67 236 8.0 18.0 0.00 0.00 0.00 75 1011.9
20260831090725 66 273 7.0 13.0 0.00 0.00 0.00 78 1012.0
20260831085725 65 300 9.0 14.0 0.00 0.00 0.00 80 1012.1
20260831084725 65 286 8.0 14.0 0.00 0.00 0.00 81 1012.1
20260831083725 65 259 7.0 15.0 0.00 0.00 0.00 83 1012.1
20260831082725 64 262 7.0 14.0 0.00 0.00 0.00 84 1012.0
20260831081725 64 272 7.0 12.0 0.00 0.00 0.00 85 1012.0
20260831080725 63 298 4.0 8.0 0.00 0.00 0.00 86 1011.9
20260831075725 62 273 4.0 8.0 0.00 0.00 0.00 86 1011.9
20260831074725 62 250 3.0 6.0 0.00 0.00 0.00 86 1011.9
20260831073725 62 287 4.0 6.0 0.00 0.00 0.00 86 1011.9
20260831072725 62 279 2.0 6.0 0.00 0.00 0.00 86 1011.9
20260831071725 62 284 4.0 4.0 0.00 0.00 0.00 86 1011.9
20260831070725 62 282 6.0 8.0 0.00 0.00 0.00 86 1011.8
20260831065725 62 252 7.0 10.0 0.00 0.00 0.00 85 1011.9
20260831064725 63 239 8.0 11.0 0.00 0.00 0.00 85 1011.9
20260831063725 63 246 6.0 12.0 0.00 0.00 0.00 85 1011.7
20260831062725 63 304 5.0 8.0 0.00 0.00 0.00 85 1011.7
20260831061725 62 275 5.0 11.0 0.00 0.00 0.00 86 1011.8
20260831060725 62 355 3.0 7.0 0.00 0.00 0.00 86 1011.5
20260831055725 61 313 2.0 5.0 0.00 0.00 0.00 85 1011.5
20260831054725 60 291 1.0 5.0 0.00 0.00 0.00 85 1011.4
20260831053725 60 84 1.0 3.0 0.00 0.00 0.00 84 1011.3
20260831052725 60 74 1.0 4.0 0.00 0.00 0.00 84 1011.2
20260831051726 59 40 1.0 6.0 0.00 0.00 0.00 84 1011.2
20260831050726 59 94 0.0 3.0 0.00 0.00 0.00 85 1011.1
20260831045726 59 77 1.0 4.0 0.00 0.00 0.00 85 1011.3
20260831044726 59 66 0.0 0.0 0.00 0.00 0.00 86 1011.2
20260831043726 59 126 0.0 3.0 0.00 0.00 0.00 86 1011.2
20260831042726 59 67 0.0 2.0 0.00 0.00 0.00 86 1011.0
20260831041726 60 259 1.0 3.0 0.00 0.00 0.00 86 1010.8
20260831040726 60 34 1.0 3.0 0.00 0.00 0.00 86 1010.8
20260831035726 59 50 1.0 4.0 0.00 0.00 0.00 86 1010.7
20260831034726 59 52 0.0 3.0 0.00 0.00 0.00 86 1010.8
20260831033726 59 338 1.0 0.0 0.00 0.00 0.00 86 1010.8
20260831032726 59 59 1.0 3.0 0.00 0.00 0.00 86 1011.0
20260831031726 59 74 2.0 6.0 0.00 0.00 0.00 86 1011.0
20260831030726 59 100 1.0 7.0 0.00 0.00 0.00 86 1011.2
20260831025726 59 244 1.0 4.0 0.00 0.00 0.00 85 1011.0
20260831024726 59 46 1.0 3.0 0.00 0.00 0.00 85 1011.0
20260831023726 59 61 0.0 2.0 0.00 0.00 0.00 85 1011.0
20260831022726 59 119 2.0 6.0 0.00 0.00 0.00 85 1011.0
20260831021726 59 98 3.0 7.0 0.00 0.00 0.00 85 1011.2
20260831020726 59 36 4.0 7.0 0.00 0.00 0.00 85 1011.4
20260831015726 59 66 2.0 8.0 0.00 0.00 0.00 85 1011.6
20260831014726 59 86 0.0 4.0 0.00 0.00 0.00 86 1011.5
20260831013726 58 164 0.0 2.0 0.00 0.00 0.00 86 1011.5
20260831012726 58 115 0.0 4.0 0.00 0.00 0.00 86 1011.7
20260831011726 58 171 0.0 1.0 0.00 0.00 0.00 86 1011.9
20260831010726 58 171 0.0 1.0 0.00 0.00 0.00 86 1011.9
20260831005726 59 171 0.0 4.0 0.00 0.00 0.00 85 1011.9
20260831004726 59 171 0.0 4.0 0.00 0.00 0.00 85 1011.9
20260831003726 59 210 1.0 3.0 0.00 0.00 0.00 85 1012.0
20260831002726 59 112 0.0 0.0 0.00 0.00 0.00 85 1011.7
20260831001726 59 111 0.0 3.0 0.00 0.00 0.00 85 1011.9
20260831000726 60 82 0.0 0.0 0.00 0.00 0.00 84 1012.0
20260830235726 60 82 0.0 0.0 0.00 0.00 0.00 84 1011.9
20260830234726 60 82 0.0 4.0 0.00 0.00 0.00 84 1012.0
20260830233726 60 149 0.0 0.0 0.00 0.00 0.00 84 1012.1
20260830232726 60 173 0.0 0.0 0.00 0.00 0.00 84 1012.1
20260830231726 61 59 0.0 0.0 0.00 0.00 0.00 83 1012.2
20260830230726 61 42 0.0 0.0 0.00 0.00 0.00 83 1012.4
20260830225726 61 101 0.0 2.0 0.00 0.00 0.00 83 1012.5
20260830224726 61 92 1.0 0.0 0.00 0.00 0.00 82 1012.6
20260830223726 61 79 1.0 5.0 0.00 0.00 0.00 82 1012.7
20260830222726 61 82 1.0 3.0 0.00 0.00 0.00 81 1012.7
20260830221726 62 77 2.0 5.0 0.00 0.00 0.00 81 1012.8
20260830220726 62 88 0.0 4.0 0.00 0.00 0.00 81 1012.8
20260830215726 62 90 2.0 7.0 0.00 0.00 0.00 81 1012.8
20260830214727 62 88 0.0 4.0 0.00 0.00 0.00 81 1012.8
20260830213727 61 91 0.0 2.0 0.00 0.00 0.00 82 1012.7
20260830212727 62 92 0.0 0.0 0.00 0.00 0.00 80 1012.6
20260830211727 62 88 0.0 1.0 0.00 0.00 0.00 80 1012.8
20260830210727 62 101 0.0 3.0 0.00 0.00 0.00 80 1012.7
20260830205727 62 127 0.0 0.0 0.00 0.00 0.00 80 1012.8
20260830204727 62 128 0.0 0.0 0.00 0.00 0.00 80 1012.8
20260830203727 62 128 0.0 0.0 0.00 0.00 0.00 79 1012.8
20260830202727 63 128 0.0 0.0 0.00 0.00 0.00 78 1012.9
20260830201727 63 128 0.0 0.0 0.00 0.00 0.00 77 1013.0
20260830200727 63 128 0.0 0.0 0.00 0.00 0.00 76 1013.0
20260830195727 64 255 0.0 0.0 0.00 0.00 0.00 75 1013.0
20260830194727 64 255 0.0 0.0 0.00 0.00 0.00 74 1013.0
20260830193727 65 255 0.0 0.0 0.00 0.00 0.00 73 1013.0
20260830192727 65 255 0.0 0.0 0.00 0.00 0.00 71 1013.1
20260830191727 65 255 0.0 0.0 0.00 0.00 0.00 71 1013.1
20260830190727 66 255 0.0 0.0 0.00 0.00 0.00 70 1013.1
20260830185727 66 257 0.0 0.0 0.00 0.00 0.00 71 1013.1
20260830184727 66 257 0.0 0.0 0.00 0.00 0.00 70 1013.0
20260830183727 66 257 0.0 0.0 0.00 0.00 0.00 69 1013.0
20260830182727 67 257 0.0 0.0 0.00 0.00 0.00 69 1013.0
20260830181727 67 257 0.0 0.0 0.00 0.00 0.00 68 1012.8
20260830180727 67 257 0.0 0.0 0.00 0.00 0.00 67 1012.7
20260830175727 68 257 0.0 0.0 0.00 0.00 0.00 66 1012.6
20260830174727 69 258 0.0 0.0 0.00 0.00 0.00 65 1012.6
20260830173728 69 248 2.0 3.0 0.00 0.00 0.00 64 1012.5
20260830172727 69 270 2.0 5.0 0.00 0.00 0.00 63 1012.5
20260830171727 70 215 5.0 4.0 0.00 0.00 0.00 63 1012.5
20260830170727 70 253 7.0 10.0 0.00 0.00 0.00 62 1012.5
20260830165727 70 255 5.0 12.0 0.00 0.00 0.00 62 1012.5
20260830164727 70 233 5.0 8.0 0.00 0.00 0.00 62 1012.6
20260830163727 71 244 6.0 11.0 0.00 0.00 0.00 61 1012.5
20260830162727 71 229 7.0 13.0 0.00 0.00 0.00 61 1012.6
20260830161727 71 223 6.0 11.0 0.00 0.00 0.00 61 1012.6
20260830160727 71 258 8.0 14.0 0.00 0.00 0.00 61 1012.6
20260830155727 71 232 8.0 15.0 0.00 0.00 0.00 61 1012.5
20260830154727 71 275 8.0 15.0 0.00 0.00 0.00 61 1012.6
20260830153727 71 219 7.0 11.0 0.00 0.00 0.00 62 1012.6
20260830152727 71 289 7.0 17.0 0.00 0.00 0.00 61 1012.6
20260830151727 71 231 8.0 13.0 0.00 0.00 0.00 62 1012.6
20260830150727 71 240 9.0 13.0 0.00 0.00 0.00 63 1012.7
20260830145727 71 238 8.0 16.0 0.00 0.00 0.00 63 1012.6
20260830144727 71 248 9.0 17.0 0.00 0.00 0.00 63 1012.6
20260830143727 71 263 10.0 14.0 0.00 0.00 0.00 63 1012.5
20260830142727 70 257 11.0 24.0 0.00 0.00 0.00 62 1012.4
20260830141727 70 238 12.0 20.0 0.00 0.00 0.00 63 1012.5
20260830140728 70 242 10.0 17.0 0.00 0.00 0.00 63 1012.5